User: anonymous   Login
Location: Unspecified
(0.0000°N, 0.0000°E)
Time: 06:09:04
(UTC+00:00)
Language:

LO-87 - Orbit

View from above orbital plane
View from above orbital plane
View from above satellite
View from above satellite

Ground track
Ground track

The orbit data is extracted from the following two-line orbital elements,

1 41557U 16033B   17296.75790201  .00002559  00000-0  97533-4 0  9993
2 41557  97.4550  16.2539 0012423 273.6057  86.3762 15.27575867 78057
Epoch (UTC): 23 October 2017 18:11:22
Eccentricity: 0.0012423
inclination: 97.4550°
perigee height: 474 km
apogee height: 491 km
right ascension of ascending node: 16.2539°
argument of perigee: 273.6057°
revolutions per day: 15.27575867
mean anomaly at epoch: 86.3762°
orbit number at epoch: 7805

The dashed part of the orbit path shows where the satellite is in the earth's shadow,  

DLR